CW8081 Weather Reports


time (UTC)temp
C
wind
direction
speed
KPH
gust
KPH
rain 1hr
cm
rain 24hr
cm
rain mn
cm
humidity
%
barometer
mb
20260507191105 17 0 0.0 4.8 0.00 0.03 0.03 77 1016.7
20260507190604 17 0 0.0 1.6 0.00 0.03 0.03 76 1016.7
20260507190104 17 0 0.0 1.6 0.00 0.03 0.03 76 1016.5
20260507184105 18 0 0.0 0.0 0.00 0.03 0.03 75 1016.5
20260507183104 18 0 0.0 0.0 0.00 0.03 0.03 75 1016.5
20260507181604 18 0 0.0 0.0 0.00 0.03 0.03 74 1016.5
20260507174605 18 0 0.0 0.0 0.00 0.03 0.03 73 1016.5
20260507173604 19 0 0.0 0.0 0.00 0.03 0.03 73 1016.5
20260507171604 19 0 0.0 0.0 0.00 0.03 0.03 71 1016.5
20260507171104 19 0 0.0 0.0 0.00 0.03 0.03 71 1016.5
20260507164604 19 0 0.0 0.0 0.00 0.03 0.03 70 1016.5
20260507163105 19 0 0.0 0.0 0.00 0.03 0.03 71 1016.5
20260507161604 19 0 0.0 0.0 0.00 0.03 0.03 71 1016.6
20260507161104 19 0 0.0 0.0 0.00 0.03 0.03 72 1016.6
20260507160605 19 0 0.0 0.0 0.00 0.03 0.03 72 1016.6
20260507160105 19 0 0.0 0.0 0.00 0.03 0.03 72 1016.6
20260507154605 19 0 0.0 0.0 0.00 0.03 0.03 75 1016.5
20260507154105 19 0 0.0 0.0 0.00 0.03 0.03 76 1016.6
20260507153604 19 0 0.0 0.0 0.00 0.03 0.03 76 1016.6
20260507153104 19 0 0.0 0.0 0.00 0.03 0.03 76 1016.8
20260507151605 20 0 0.0 0.0 0.00 0.03 0.03 75 1016.8
20260507150104 20 0 0.0 0.0 0.00 0.03 0.03 72 1016.7
20260507144604 20 358 0.0 0.0 0.00 0.03 0.03 70 1016.8
20260507143604 20 0 0.0 0.0 0.00 0.03 0.03 70 1016.8
20260507140604 21 0 0.0 1.6 0.00 0.03 0.03 67 1016.6
20260507134104 20 339 0.0 0.0 0.00 0.03 0.03 73 1016.7
20260507133604 20 298 0.0 0.0 0.00 0.03 0.03 73 1016.7
20260507130104 20 0 0.0 0.0 0.00 0.03 0.03 76 1016.7
20260507124104 20 288 0.0 0.0 0.00 0.03 0.03 75 1017.9
20260507123604 20 316 0.0 0.0 0.00 0.03 0.03 75 1017.9
20260507120104 20 304 0.0 0.0 0.00 0.03 0.03 77 1017.9
20260507114604 19 301 0.0 0.0 0.03 0.03 0.03 77 1017.9
20260507114104 20 301 0.0 0.0 0.03 0.03 0.03 76 1018.3
20260507113604 20 297 0.0 0.0 0.03 0.03 0.03 76 1018.3
20260507111104 20 296 0.0 3.2 0.03 0.03 0.03 74 1018.4
20260507110604 20 296 0.0 0.0 0.03 0.03 0.03 74 1018.4
20260507110105 20 296 0.0 0.0 0.03 0.03 0.03 74 1018.4
20260507104604 20 297 0.0 0.0 0.00 0.00 0.00 71 1018.3
20260507104104 20 297 0.0 0.0 0.00 0.00 0.00 70 1018.3
20260507103605 20 297 0.0 0.0 0.00 0.00 0.00 69 1018.3
20260507101104 20 280 0.0 0.0 0.00 0.00 0.00 67 1017.8
20260507100604 20 326 0.0 0.0 0.00 0.00 0.00 67 1017.8
20260507093104 20 0 0.0 0.0 0.00 0.00 0.00 66 1017.8
20260507091104 19 0 0.0 0.0 0.00 0.00 0.00 68 1017.4
20260507083604 18 0 0.0 0.0 0.00 0.00 0.00 74 1017.2
20260507083104 19 0 0.0 0.0 0.00 0.00 0.00 76 1016.6
20260507081604 18 0 0.0 0.0 0.00 0.00 0.00 77 1016.6
20260507080604 18 0 0.0 0.0 0.00 0.00 0.00 76 1016.6
20260507074104 18 352 0.0 0.0 0.00 0.00 0.00 75 1016.6
20260507073104 19 0 0.0 0.0 0.00 0.00 0.00 73 1016.6
20260507071604 19 236 0.0 0.0 0.00 0.00 0.00 74 1016.6
20260507070104 18 0 0.0 0.0 0.00 0.00 0.00 75 1016.6
20260507064604 18 0 0.0 0.0 0.00 0.00 0.00 74 1016.6
20260507064104 18 0 0.0 0.0 0.00 0.00 0.00 73 1016.6
20260507063104 18 0 0.0 0.0 0.00 0.00 0.00 73 1016.6
20260507060604 18 0 0.0 0.0 0.00 0.00 0.00 77 1016.0
20260507060105 17 5 0.0 0.0 0.00 0.00 0.00 77 1016.0
20260507054104 17 5 0.0 0.0 0.00 0.00 0.00 79 1016.0
20260507051108 16 5 0.0 0.0 0.00 0.00 0.00 84 1016.0
20260507050604 16 5 0.0 0.0 0.00 0.00 0.00 84 1016.0
20260507050104 15 5 0.0 0.0 0.00 0.00 0.00 85 1016.0
20260507043604 15 5 0.0 0.0 0.00 0.00 0.00 86 1015.9
20260507041604 13 5 0.0 0.0 0.00 0.00 0.00 86 1015.7
20260507040604 13 5 0.0 0.0 0.00 0.00 0.00 86 1015.7
20260507034605 13 5 0.0 0.0 0.00 0.00 0.00 85 1015.7
20260507033604 13 5 0.0 0.0 0.00 0.00 0.00 85 1015.4
20260507030104 13 5 0.0 1.6 0.00 0.00 0.00 85 1015.4
20260507024104 13 5 0.0 0.0 0.00 0.00 0.00 85 1015.2
20260507020104 14 5 0.0 1.6 0.00 0.00 0.00 85 1014.8
20260507014604 14 5 0.0 1.6 0.00 0.00 0.00 84 1014.8
20260507011104 15 5 0.0 0.0 0.00 0.00 0.00 84 1014.8
20260507010604 15 5 0.0 0.0 0.00 0.00 0.00 83 1014.8
20260507003604 15 5 0.0 0.0 0.00 0.00 0.00 84 1014.8
20260507001104 15 5 0.0 1.6 0.00 0.00 0.00 84 1014.8
20260507000105 15 5 0.0 1.6 0.00 0.00 0.00 84 1014.8
20260506234105 15 5 0.0 0.0 0.00 0.00 0.00 83 1015.0
20260506230105 15 5 0.0 0.0 0.00 0.00 0.00 82 1015.1
20260506221104 16 5 0.0 0.0 0.00 0.00 0.00 83 1015.2
20260506220104 16 5 0.0 0.0 0.00 0.00 0.00 83 1015.2
20260506211604 17 357 0.0 0.0 0.00 0.00 0.00 83 1015.2
20260506211106 17 0 0.0 0.0 0.00 0.00 0.00 83 1015.2
20260506210105 17 355 0.0 0.0 0.00 0.00 0.00 83 1015.2
20260506204604 17 0 0.0 0.0 0.00 0.00 0.00 84 1015.1
20260506204104 17 266 0.0 0.0 0.00 0.00 0.00 84 1015.1
20260506201604 17 356 0.0 0.0 0.00 0.00 0.00 84 1014.8
20260506200604 17 296 0.0 0.0 0.00 0.00 0.00 84 1014.8
20260506194604 17 0 0.0 0.0 0.00 0.00 0.00 84 1014.4
20260506193604 17 0 0.0 0.0 0.00 0.00 0.00 83 1014.4